Погода в Новопокровском

Россия / Саратовская область     51°34′27″N   43°36′17″E
темп.,
°C
ветер,
м/с
пор.,
м/с
влажн.,
%
обл.,
%
осадки,
мм/ч
давл.,
гПа
погр.,
м
18 апреля, вс
вс1801:00+7зсз33840 0.0 102054
04:00+6з11880 0.0 102010
07:00+6зсз12860 0.0 101922
10:00+11з226237 0.0 1019614
13:00+14зюз335045 0.0 10191631
16:00+15зюз224384 0.0 10181838
19:00+14зюз114878 0.0 101830
22:00+12всв1159100 0.0 101827
19 апреля, пн
пн1901:00+11ссв1165100 0.0 101825
04:00+10вюв237813 0.2 101734
07:00+8вюв358631 0.4 1017111
10:00+12вюв336495 1.2 1017472
13:00+14вюв3453100 0.9 10161621
16:00+12в3574100 1.8 1016545
19:00+10в5879100 0.7 1017595
22:00+8в4888100 1.6 1018509
20 апреля, вт
вт2001:00+8в5992100 0.8 1018531
04:00+6в61189100 1.5 1018487
07:00+6в81389100 0.1 1018531
10:00+6в91582100 0.1 1018607
13:00+5в101686100 0.2 1018709
16:00+6вюв111984100 0.9 1015884
19:00+6вюв132391100 8.5 1012806
22:00+8вюв132489100 21.3 10101076
21 апреля, ср
ср2101:00+8юв132385100 4.9 10091027
04:00+9юв112087100 4.9 1009867
07:00+8юв112092100 0.1 1009775
10:00+9ююв101693100 0.8 10101058
13:00+9ю81383100 0.5 10111079
16:00+8зюз6882100 0.9 1015897
19:00+8юз4879100 0.1 1018634
22:00+8ююз3371100 0.1 101962
22 апреля, чт
чт2201:00+8ююз4777100 0.0 1020178
04:00+5ююв368998 0.0 1021109
07:00+6ююв368995 0.0 1022137
10:00+8юв488798 1.3 1023410
13:00+13ю456575 0.4 1022926
16:00+15ююз354894 1.2 10212039
19:00+12з357087 0.1 1022126
22:00+9зюз3381100 0.1 102228